Tracking 19192 objects as of 18-Jun-2018
HD Live streaming from Space Station
objects crossing your sky now

FENGYUN 1C DEB

Track FENGYUN 1C DEB now!
10-day predictions


NORAD ID: 39544
Int'l Code: 1999-025EWM
Perigee: 851.9 km
Apogee: 934.5 km
Inclination: 98.9 °
Period: 102.7 minutes
Semi major axis: 7264 km
RCS: Unknown
Launch date: May 10, 1999
Source: People's Republic of China (PRC)
Launch site: Taiyaun Space Center, China (TSC)

Note: This is SATELLITE DEBRIS
aabbcc
Your satellite tracking list
Your tracking list is empty




NASA's NSSDC Master Catalog

Two Line Element Set (TLE):
1 39544U 99025EWM 18169.54716105  .00000522  00000-0  36352-3 0  9995
2 39544  98.9228  83.5716 0056825  77.0388 283.7116 14.02238993226799
Source of the keplerian elements: AFSPC